Regional Weather Roundup
Issued by NWS

Home | Current Version | Previous Version | Text Only | Print | Product List | Glossary On
Versions: 1 2 3 4 5 6 7 8 9 10 11 12 13 14 15 16 17 18 19 20 21 22 23 24 25 26 27 28 29 30 31 32 33 34 35 36 37 38 39 40 41 42 43 44 45 46 47 48 49 50
000
ASUS42 KTBW 011810
RWRFL
FLORIDA REGIONAL WEATHER ROUNDUP
NATIONAL WEATHER SERVICE TAMPA BAY RUSKIN FL
100 PM EST SUN FEB 01 2015

NOTE: "FAIR" INDICATES FEW OR NO CLOUDS BELOW 12,000 FEET WITH NO
SIGNIFICANT WEATHER AND/OR OBSTRUCTIONS TO VISIBILITY.


FLZ001>010-012>015-112-114-115-011900-
PANHANDLE FLORIDA

CITY           SKY/WX    TMP DP  RH WIND       PRES   REMARKS
PENSACOLA      RAIN      64  62  93 S14       30.00F FOG
PENSACOLA NAS  RAIN      65  63  93 S16       30.01F VSB 3/4
MILTON NAS     LGT RAIN  65  62  90 S12       30.01F FOG
CRESTVIEW      LGT RAIN  67  61  81 S13G18    30.05F
DUKE FIELD     RAIN      65  61  86 SE13      30.03F
VALPARAISO     LGT RAIN  66  61  85 SE13      30.02F
MARY ESTHER    LGT RAIN  66  60  80 SE17G23   30.01F
TRI COUNTY     CLOUDY    66  57  72 S12       30.07F
PANAMA CITY    CLOUDY    66  57  72 SE17G26   30.08F
TYNDALL AFB    MOSUNNY   67  58  72 SE20G31   30.08F
APALACHICOLA   CLOUDY    68  57  68 SE12      30.11F

STATION/POSITION SKY/WX   TEMP    WIND        PRES    WAVE   SWELL
                          AIR SEA DIR/SP/G            HT/PER HT/PER
                          (F)     (DEG/KT/KT) (MB)    (FT/S) (FT/S)
30.1N   87.6W              64 62  180/ 16/ 19 1015.9F   6/ 7   2/12
29.2N   88.2W              69 69  160/ 17/ 19 1016.2F   7/ 7
28.7N   86.0W              69 69  170/ 23/ 27 1017.7F   8/ 7
PANAMA CITY BEAC           62 60  130/ 18/ 20 1018.0F
CAPE SAN BLAS    NOT AVBL
TOWER C                    64     150/ 21/ 23 1018.8F
28.5N   84.5W              67 67  150/ 23/ 25 1018.8F   7/ 7

$$
FLZ011-016>038-118-127-128-134-139-239-011900-
NORTH FLORIDA

CITY           SKY/WX    TMP DP  RH WIND       PRES   REMARKS
MARIANNA       CLOUDY    69  55  60 S14G21    30.07F
TALLAHASSEE    PTSUNNY   68  48  48 S14G25    30.13F
PERRY          SUNNY     72  48  42 S15G22    30.13F
CROSS CITY       N/A     73  48  41 S17G26    30.13F
LAKE CITY      FAIR      70  48  46 S12G22    30.14F
GAINESVILLE    MOSUNNY   71  48  43 SE18G25   30.16F
MAYPORT NAS    SUNNY     70  51  51 SE12      30.18F
JACKSONVILLE   MOSUNNY   70  49  47 S16G25    30.16F
JAX NAS        MOSUNNY   73  50  44 S17G26    30.17F
JAX CRAIG      PTSUNNY   70  51  51 S14       30.17F
JAX CECIL      PTSUNNY   72  50  46 S13G25    30.17F
FERNANDINA BEA FAIR      72  52  49 SE9       30.17F
ST AUGUSTINE   PTSUNNY   70  55  59 SE14G23   30.18F

STATION/POSITION SKY/WX   TEMP    WIND        PRES    WAVE   SWELL
                          AIR SEA DIR/SP/G            HT/PER HT/PER
                          (F)     (DEG/KT/KT) (MB)    (FT/S) (FT/S)
SHELL POINT                59     140/ 14/ 18   N/A
KEATON BEACH               65     160/ 20/ 23 1020.8F
CEDAR KEY                  60     140/  8/  9 1022.6F
FERNANDINA                 66 55  160/  9/ 15 1021.3F
30.7N   81.3W                 58                N/A     2/10   2/12
MAYPORT                    67 57  150/  9/ 14 1021.9F
31.4N   80.9W              58 55  120/  6/  6 1022.7F   2/11   2/11
ST AUGUSTINE               61     110/  9/ 10 1022.5F

$$
FLZ040-043>046-052-053-057-058-063-144-011900-
INTERIOR CENTRAL FLORIDA

CITY           SKY/WX    TMP DP  RH WIND       PRES   REMARKS
OCALA          MOSUNNY   72  46  40 S8G22     30.17F
THE VILLAGES     N/A     72  50  46 SE13G21   30.07F
LEESBURG       PTSUNNY   71  50  47 SE12      30.19F
SANFORD        PTSUNNY   73  49  42 S14       30.19F
ORLANDO EXEC   MOSUNNY   73  50  44 S12       30.19F
ORLANDO INTL   MOSUNNY   73  49  42 SE13G22   30.20F
KISSIMMEE      MOSUNNY   72  52  49 S14       30.21F
WINTER HAVEN   MOSUNNY   73  50  44 SE14G20   30.20F
LAKELAND       MOSUNNY   73  52  46 MISG      30.18F
BARTOW         MOSUNNY   72  50  46 SE17G23   30.20F
OKEECHOBEE     MOSUNNY   73  54  49 SE9       30.20F

$$
FLZ041-047-054-059-064-141-147-011900-
EAST CENTRAL FLORIDA

CITY           SKY/WX    TMP DP  RH WIND       PRES   REMARKS
ORMOND BEACH   MOSUNNY   70  52  52 SW12      30.20F
DAYTONA BEACH  PTSUNNY   71  51  49 S10       30.20F
DELAND         PTCLDY    72  50  46 S14       30.20F
NEW SMYRNA BEA PTSUNNY   72  52  49 E9        30.22
JFK SPACE CTR  MOSUNNY   72  53  50 S16G22    30.20F
CAPE CANAVERAL SUNNY     71  53  53 S17G23    30.20F
PATRICK AFB    SUNNY     71  53  52 S17       30.21F
MELBOURNE      FAIR      72  50  45 SE14G24   30.21F
VERO BEACH     MOSUNNY   71  52  50 E12       30.22F
FT PIERCE      PTSUNNY   71  53  52 E17       30.20F
STUART         PTSUNNY   70  55  60 E15       30.22F

STATION/POSITION SKY/WX   TEMP    WIND        PRES    WAVE   SWELL
                          AIR SEA DIR/SP/G            HT/PER HT/PER
                          (F)     (DEG/KT/KT) (MB)    (FT/S) (FT/S)
28.5N   80.2W              68 69  140/ 16/ 17 1023.8F
28.9N   78.5W              67 74  140/ 14/ 19 1024.5F   6/11   5/11
TRIDENT PIER               68 63  160/  7/ 12 1023.7F
28.4N   80.5W                 63                N/A     3/ 5
27.6N   80.2W                 65                N/A     5/10   2/11

$$
FLZ050-056-061-142-242-148-248-149-249-151-251-155-255-
160-260-011900-
WEST CENTRAL FLORIDA

CITY           SKY/WX    TMP DP  RH WIND       PRES   REMARKS
CRYSTAL RIVER  FAIR      73  46  38 SE13G21   30.15F
INVERNESS      FAIR      73  46  38 SE14G22   30.17F
BROOKSVILLE    SUNNY     74  51  44 SE14G21   30.15F
ZEPHYRHILLS    FAIR      73  46  38 SE13G18   30.17F
CLEARWATER     SUNNY     73  52  47 SE16G25   30.15F
TAMPA INTL     MOSUNNY   72  50  45 SE14G20   30.16F
TAMPA EXEC     SUNNY     75  50  41 S9G20     30.17F
PLANT CITY       N/A    N/A N/A N/A MISG        N/A
MACDILL AFB    SUNNY     73  54  51 SE16      30.15F
PETER O KNIGHT SUNNY     75  54  46 SE12      30.16F
ST PETERSBURG  SUNNY     70  54  56 SE12      30.14F
SARASOTA       SUNNY     75  50  41 SE14G23   30.13F
VENICE         FAIR      75  52  43 SE14G23   30.16F

STATION/POSITION SKY/WX   TEMP    WIND        PRES    WAVE   SWELL
                          AIR SEA DIR/SP/G            HT/PER HT/PER
                          (F)     (DEG/KT/KT) (MB)    (FT/S) (FT/S)
CEDAR KEY                  60     140/  8/  9 1022.6F
28.5N   84.5W              67 67  150/ 23/ 25 1018.8F   7/ 7
27.3N   84.3W                 72                N/A     7/ 6
CLEARWATER BEACH           70 60  140/ 13/ 17 1020.7F
MIDDLE TAMPA BAY           70     160/ 14/ 16 1021.5F
VENICE                     70 63  150/ 15/ 20 1020.6F

$$
FLZ066-069-070-075>078-162-262-165-265-011900-
SOUTHWEST FLORIDA AND KEYS

CITY           SKY/WX    TMP DP  RH WIND       PRES   REMARKS
PUNTA GORDA    SUNNY     76  51  41 SE16      30.17F
FT MYERS       SUNNY     76  52  43 SE10G21   30.16F
SOUTHWEST INTL SUNNY     76  51  41 S13       30.16F
NAPLES         MOSUNNY   77  52  41 E14       30.15F
MARCO ISLAND   CLEAR     75  54  46 SE14      30.15F
IMMOKALEE      PTCLDY    79  52  38 SE8G17    30.19F
MARATHON       MOSUNNY   78  62  57 E10G17    30.15F
KEY WEST NAS   PTSUNNY   77  62  59 E14       30.14F
KEY WEST INTL  PTSUNNY   75  63  66 E10       30.14F

STATION/POSITION SKY/WX   TEMP    WIND        PRES    WAVE   SWELL
                          AIR SEA DIR/SP/G            HT/PER HT/PER
                          (F)     (DEG/KT/KT) (MB)    (FT/S) (FT/S)
VENICE                     70 63  150/ 15/ 20 1020.6F
NAPLES                     74     120/  6/ 11 1021.6F
26.0N   85.6W              72 72  130/ 19/ 23 1018.0F   7/ 7   2/14
DRY TORTUGAS               70     100/ 18/ 20 1020.7F
NW FL BAY                  69      90/ 10/ 11 1022.7F
SAND KEY                   73     120/ 17/ 20 1020.4F
SOMBRERO KEY               73     110/ 17/ 19 1021.3F
LONG KEY                   71 67  110/ 14/ 16 1022.6F
MOLASSES REEF              71 76  110/ 16/ 18 1021.3F

$$
FLZ067-068-071>074-168-172>174-011900-
SOUTHEAST FLORIDA

CITY           SKY/WX    TMP DP  RH WIND       PRES   REMARKS
W PALM BEACH   PTSUNNY   76  57  51 SE18      30.18F
FT LAUDER-EXEC PTSUNNY   75  53  46 E14G22    30.18F
FT LAUDERDALE  MOSUNNY   74  56  53 SE15G22   30.18F
POMPANO BEACH  FAIR      75  54  47 SE13      30.19F
PEMBROKE PINES PTSUNNY   74  54  49 SE12      30.19F
OPA LOCKA      PTSUNNY   76  56  49 E13       30.18F
MIAMI          PTSUNNY   75  55  49 E14       30.18F
WEST KENDALL   PTSUNNY   73  56  54 SE12      30.18F
HOMESTEAD      SUNNY     74  57  56 E13       30.18F

STATION/POSITION SKY/WX   TEMP    WIND        PRES    WAVE   SWELL
                          AIR SEA DIR/SP/G            HT/PER HT/PER
                          (F)     (DEG/KT/KT) (MB)    (FT/S) (FT/S)
PORT EVERGLADES            72     130/ 10/ 12 1022.1
VIRGINIA KEY               71 68  120/ 10/ 13 1022.5F


USA.gov is the U.S. government's official web portal to all federal, state and local government web resources and services.